Terug naar catalogus

GLOBALSTAR M063

ActiefCommunicatieLEO
NORAD 26081·PAYLOAD·🇺🇸 United States

Gelanceerd Feb 8, 2000 vanaf Cape Canaveral Space Force Station

Loading…

Volgende Passages (komende 24 uur)

TLE

VersSource: Space-Track

Epoch: Sep 14, 2026, 06:13 UTC

1 26081U 00008A   26257.25937402 -.00000102  00000-0 -28859-3 0  9999
2 26081  51.9988 355.6863 0004981 103.6122 270.8734 11.86188631211460

Volg GLOBALSTAR M063 in realtime met AllMySat

Download on the App Store